AKDT,Max TemperatureF,Mean TemperatureF,Min TemperatureF,Max Dew PointF,MeanDew PointF,Min DewpointF,Max Humidity, Mean Humidity, Min Humidity, Max Sea Level PressureIn, Mean Sea Level PressureIn, Min Sea Level PressureIn, Max VisibilityMiles, Mean VisibilityMiles, Min VisibilityMiles, Max Wind SpeedMPH, Mean Wind SpeedMPH, Max Gust SpeedMPH,PrecipitationIn, CloudCover, Events, WindDirDegrees
2013-9-1,55,50,46,52,47,45,93,81,72,29.83,29.78,29.71,10,10,5,9,2,,0.00,8,,250
2013-9-2,57,54,51,54,50,48,94,90,82,29.71,29.62,29.51,10,9,4,8,2,,0.06,7,,317
2013-9-3,60,53,46,52,46,43,94,77,55,29.50,29.36,29.27,10,10,3,13,4,20,0.01,6,,204
2013-9-4,57,50,44,48,45,39,93,78,55,29.80,29.55,29.39,10,10,5,16,3,24,0.02,6,,185
2013-9-5,60,50,39,46,41,36,93,77,45,30.00,29.93,29.80,10,10,10,13,2,18,0.00,7,,54
2013-9-6,51,46,42,46,44,39,93,83,71,29.98,29.60,29.38,10,10,10,17,6,26,0.05,6,,39
2013-9-7,55,52,48,52,48,46,94,86,77,29.63,29.55,29.40,10,9,3,13,4,17,0.10,7,,265
2013-9-8,62,55,48,48,45,39,93,74,42,29.81,29.63,29.48,10,10,10,15,6,25,0.00,6,,207
2013-9-9,60,54,48,48,45,41,88,70,52,29.81,29.66,29.58,10,10,10,23,8,34,0.00,7,,84
2013-9-10,57,52,48,54,50,46,94,89,82,29.73,29.69,29.65,10,9,5,7,2,,0.09,8,,81
2013-9-11,59,54,48,52,47,41,94,80,59,29.88,29.71,29.60,10,9,1,14,3,20,0.20,7,,192
2013-9-12,57,47,37,45,41,34,93,77,58,29.98,29.93,29.87,10,10,10,13,3,,0.00,5,,91
2013-9-13,60,54,48,46,45,43,87,73,55,29.91,29.87,29.84,10,10,10,14,6,17,0.00,7,,51
2013-9-14,64,54,44,48,45,39,93,73,45,29.91,29.87,29.84,10,10,10,9,4,,0.00,2,,43
2013-9-15,62,48,35,45,38,30,93,73,34,29.88,29.82,29.71,10,10,10,14,2,,0.00,0,,327
2013-9-16,57,44,30,43,36,27,93,73,48,29.71,29.58,29.48,10,10,0,9,2,,0.00,1,,265
2013-9-17,53,46,39,45,40,36,93,81,67,29.52,29.47,29.45,10,10,0,8,2,,0.00,7,,52
2013-9-18,50,44,37,43,39,36,93,79,62,29.61,29.58,29.53,10,10,6,10,4,,0.00,7,,206
2013-9-19,50,39,28,39,32,23,87,66,37,29.58,29.51,29.43,10,10,10,12,3,,0.00,5,,54
2013-9-20,46,35,24,27,23,19,86,64,34,29.42,29.28,29.02,10,10,10,8,2,,0.00,0,,57
2013-9-21,46,36,26,37,30,21,87,73,50,29.01,28.97,28.95,10,10,10,10,2,,0.00,6,,28
2013-9-22,44,38,33,37,28,21,93,65,39,29.31,29.11,28.95,10,10,10,13,3,18,0.00,6,,45
2013-9-23,48,38,28,27,21,19,74,49,32,29.76,29.54,29.31,10,10,10,12,6,18,0.00,2,,50
2013-9-24,42,32,21,36,26,18,93,71,53,29.95,29.89,29.76,10,10,7,12,3,,0.05,2,,66
2013-9-25,50,44,39,46,41,36,93,88,81,29.79,29.53,29.43,10,8,2,7,2,,0.40,8,,337
2013-9-26,48,44,41,45,43,37,93,90,82,29.61,29.51,29.18,10,8,0,9,1,,0.02,8,,243
2013-9-27,51,46,42,41,39,37,93,75,58,29.17,29.01,28.90,10,10,10,14,4,24,0.00,7,,33
2013-9-28,53,43,33,41,36,30,93,75,58,29.16,29.12,29.08,10,10,10,10,2,,0.00,4,,296
2013-9-29,51,42,33,36,31,28,87,64,44,29.38,29.27,29.16,10,10,10,13,3,16,0.00,8,,313
2013-9-30,51,43,35,32,29,27,81,58,38,29.65,29.50,29.38,10,10,10,14,4,18,0.00,5,,318